WetterOnline ( https://www.wetteronline.de )

Wetter aktuell Oelixdorf

Aktuelles Wetter: Itzehoe (26m)

6-stündlich | Neueste Meldungen
Ortszeit Temperatur Wetter
Do, 17.10. 14:00 14.0° C Regen
Do, 17.10. 8:00 14.4° C Sprühregen
Do, 17.10. 2:00 13.7° C Sprühregen
Mi, 16.10. 20:00 11.5° C wolkenlos
Mi, 16.10. 14:00 14.3° C bewölkt
Mi, 16.10. 8:00 14.0° C Sprühregen
Mi, 16.10. 2:00 14.8° C bewölkt
Di, 15.10. 20:00 14.3° C leicht bewölkt
Ortszeit Temperatur Wetter
Do, 17.10. 19:30 12.8° C bedeckt
Do, 17.10. 19:20 12.8° C bedeckt
Do, 17.10. 19:10 12.9° C bedeckt
Do, 17.10. 19:00 13.0° C bedeckt
Do, 17.10. 18:50 13.0° C bedeckt
Do, 17.10. 18:40 13.0° C bedeckt
Do, 17.10. 18:30 13.0° C bewölkt
Do, 17.10. 18:00 14.2° C wolkig
Do, 17.10. 17:30 14.8° C bewölkt
Do, 17.10. 17:00 15.2° C bewölkt
Do, 17.10. 16:30 15.4° C bedeckt
Ortszeit Relative Feuchte Sichtweite
Do, 17.10. 14:00 95% 7 km
Do, 17.10. 8:00 97% 6 km
Do, 17.10. 2:00 97% 2.4 km
Mi, 16.10. 20:00 94% 17 km
Mi, 16.10. 14:00 93% 14 km
Mi, 16.10. 8:00 97% 15 km
Mi, 16.10. 2:00 96% 5.0 km
Di, 15.10. 20:00 94% 11 km
Ortszeit Relative Feuchte Sichtweite
Do, 17.10. 19:30 96% 23 km
Do, 17.10. 19:20 96% -
Do, 17.10. 19:10 96% -
Do, 17.10. 19:00 96% 30 km
Do, 17.10. 18:50 96% -
Do, 17.10. 18:40 94% -
Do, 17.10. 18:30 92% 30 km
Do, 17.10. 18:00 81% 55 km
Do, 17.10. 17:30 79% 55 km
Do, 17.10. 17:00 75% 45 km
Do, 17.10. 16:30 76% 55 km
Ortszeit Niederschlagsmenge Niederschlagsart
Do, 17.10. 14:00 1 l/m2 in 6 Std. Regen
Do, 17.10. 8:00 4 l/m2 in 12 Std. Regen
Do, 17.10. 2:00 0.1 l/m2 in 6 Std. Regen
Mi, 16.10. 20:00 3 l/m2 in 12 Std. Sprühregen
Mi, 16.10. 14:00 3 l/m2 in 6 Std. Regen
Mi, 16.10. 8:00 16 l/m2 in 12 Std. Regen
Mi, 16.10. 2:00 0.0 l/m2 in 6 Std. -
Di, 15.10. 20:00 0.0 l/m2 in 12 Std. -
Ortszeit Niederschlagsmenge Niederschlagsart
Do, 17.10. 19:30 0.0 l/m2 in 1 Std. -
Do, 17.10. 19:20 keine Meldung -
Do, 17.10. 19:10 keine Meldung -
Do, 17.10. 19:00 0.0 l/m2 in 1 Std. -
Do, 17.10. 18:50 keine Meldung -
Do, 17.10. 18:40 keine Meldung -
Do, 17.10. 18:30 0.0 l/m2 in 1 Std. -
Do, 17.10. 18:00 0.0 l/m2 in 1 Std. -
Do, 17.10. 17:30 0.0 l/m2 in 1 Std. -
Do, 17.10. 17:00 0.0 l/m2 in 1 Std. Sprühregen
Do, 17.10. 16:30 0.0 l/m2 in 1 Std. -
Ortszeit Stärke Spitze Richtung
km/h Bft. km/h Grad Sektor
Do, 17.10. 14:00 9 2 26 300° NW
Do, 17.10. 8:00 9 2 28 220° SW
Do, 17.10. 2:00 7 2 18 180° S
Mi, 16.10. 20:00 4 1 22 190° S
Mi, 16.10. 14:00 7 2 25 260° W
Mi, 16.10. 8:00 4 1 14 260° W
Mi, 16.10. 2:00 7 2 11 340° N
Di, 15.10. 20:00 4 1 14 20° N
Ortszeit Stärke Spitze Richtung
km/h Bft. km/h Grad Sektor
Do, 17.10. 19:30 4 1 4 80° O
Do, 17.10. 19:20 4 1 - 80° O
Do, 17.10. 19:10 0 0 - 90° O
Do, 17.10. 19:00 4 1 7 150° SO
Do, 17.10. 18:50 4 1 - 150° SO
Do, 17.10. 18:40 4 1 - 160° S
Do, 17.10. 18:30 0 0 4 - -
Do, 17.10. 18:00 2 1 9 220° SW
Do, 17.10. 17:30 4 1 11 240° SW
Do, 17.10. 17:00 6 1 17 250° W
Do, 17.10. 16:30 7 2 14 250° W
Ortszeit Untergrenze Bedeckung Gattung
total tief tief mittel hoch
Do, 17.10. 14:00 180 m 8/8 8/8 - - -
Do, 17.10. 8:00 180 m 7/8 7/8 - - -
Do, 17.10. 2:00 120 m 8/8 8/8 - - -
Mi, 16.10. 20:00 - 0/8 0/8 - - -
Mi, 16.10. 14:00 270 m 7/8 7/8 - - -
Mi, 16.10. 8:00 120 m 8/8 8/8 - - -
Mi, 16.10. 2:00 630 m 7/8 7/8 - - -
Di, 15.10. 20:00 7800 m 4/8 0/8 - - -
Ortszeit Bedeckungsgrad in Achtel und Wolkenuntergrenze
Do, 17.10. 19:30 5(1440m) 8(1800m)
Do, 17.10. 19:20 5(1440m) 8(1800m)
Do, 17.10. 19:10 7(1500m) 8(1800m)
Do, 17.10. 19:00 8(1500m) 8(1800m)
Do, 17.10. 18:50 8(1500m)
Do, 17.10. 18:40 8(1500m)
Do, 17.10. 18:30 7(1500m)
Do, 17.10. 18:00 4(1500m) 5(2100m)
Do, 17.10. 17:30 7(2100m) 6(2100m)
Do, 17.10. 17:00 3(1500m) 7(2100m)
Do, 17.10. 16:30 8(1800m) 8(2100m)
Ortszeit Luftdruck NN (hPa) Tendenz (hPa in 3 Std.)
Do, 17.10. 14:00 1010 + 1,5
Do, 17.10. 8:00 1007 + 0,1
Do, 17.10. 2:00 1007 - 0,7
Mi, 16.10. 20:00 1009 + 0,5
Mi, 16.10. 14:00 1008 + 0,3
Mi, 16.10. 8:00 1006 - 0,3
Mi, 16.10. 2:00 1006 - 0,4
Di, 15.10. 20:00 1006 + 0,7
Ortszeit Luftdruck NN (hPa) Tendenz (hPa in 3 Std.)
Do, 17.10. 19:30 1011 + 0,4
Do, 17.10. 19:20 1011 keine Meldung
Do, 17.10. 19:10 1011 keine Meldung
Do, 17.10. 19:00 1011 + 0,7
Do, 17.10. 18:50 1011 keine Meldung
Do, 17.10. 18:40 1011 keine Meldung
Do, 17.10. 18:30 1011 + 0,7
Do, 17.10. 18:00 1011 + 0,7
Do, 17.10. 17:30 1011 + 0,8
Do, 17.10. 17:00 1011 + 0,9
Do, 17.10. 16:30 1010 + 1,2
Ortszeit Schneehöhe (cm)
Do, 17.10. 14:00 -
Do, 17.10. 8:00 -
Do, 17.10. 2:00 -
Mi, 16.10. 20:00 -
Mi, 16.10. 14:00 -
Mi, 16.10. 8:00 -
Mi, 16.10. 2:00 -
Di, 15.10. 20:00 -
Ortszeit Schneehöhe (cm)
Do, 17.10. 19:30 -
Do, 17.10. 19:20 -
Do, 17.10. 19:10 -
Do, 17.10. 19:00 -
Do, 17.10. 18:50 -
Do, 17.10. 18:40 -
Do, 17.10. 18:30 -
Do, 17.10. 18:00 -
Do, 17.10. 17:30 -
Do, 17.10. 17:00 -
Do, 17.10. 16:30 -
Link zu dieser Seite / Seite empfehlen

Das Wetter in ...